Wind_Speed
31 33 36 39 41 43 45 47 49 50 51 54 57 61 64 68 71 77 82 89 94 96 92 85 79 78 77 76 76 75 71 65 61 57 55 54 56 57 60 64 71 76 79
34 36 39 41 44 46 48 49 50 51 52 54 58 62 65 69 73 78 84 91 94 93 87 81 77 77 76 75 75 74 68 61 58 57 56 53 48 48 52 58 65 73 79
37 39 42 44 46 49 51 53 54 55 55 57 60 63 67 70 75 80 86 91 93 89 83 78 76 75 75 74 74 72 66 59 54 54 55 54 46 36 37 48 58 69 76
39 42 44 46 49 51 54 57 59 60 60 60 62 65 69 72 76 81 87 91 90 85 79 76 76 74 74 74 73 70 64 58 52 49 47 47 45 35 24 34 48 61 72
39 43 46 49 51 53 56 59 63 64 64 63 64 67 70 73 77 83 87 89 87 82 77 75 75 74 74 73 72 67 61 55 50 46 43 39 37 33 22 18 34 50 64
39 44 47 50 53 56 59 62 65 68 69 67 67 69 72 74 78 83 87 88 84 79 75 74 74 74 73 73 71 65 59 52 46 41 38 36 33 29 22 13 19 36 53
40 44 48 52 55 58 61 64 66 70 72 71 70 71 73 75 79 83 87 86 82 77 73 72 72 73 73 72 69 64 57 50 43 38 34 31 28 26 21 14 9 24 41
41 45 49 53 56 60 62 65 68 71 74 74 73 73 74 76 79 83 86 85 81 75 72 71 71 72 72 72 68 63 56 48 41 36 32 28 25 22 19 14 8 15 31
41 45 49 53 57 61 64 66 69 72 75 76 75 74 75 77 80 83 86 84 80 74 71 70 71 71 72 71 68 63 56 48 41 35 31 27 23 20 17 13 9 12 24
43 46 50 54 58 61 65 67 70 72 75 78 77 76 76 77 79 83 85 83 79 73 70 70 70 70 71 70 67 62 56 49 42 37 32 27 23 20 17 14 11 12 21
45 48 51 54 58 61 65 68 70 73 76 78 79 77 76 77 79 82 84 82 78 72 69 69 69 70 70 70 66 62 56 48 42 38 34 28 23 19 17 16 14 14 20
47 50 52 55 58 61 65 68 70 73 75 78 80 78 77 76 78 81 83 81 76 72 68 68 68 69 69 69 65 60 55 49 43 39 34 29 23 18 17 16 15 15 18
48 51 53 55 58 61 64 67 70 72 75 78 80 79 77 76 78 81 82 80 75 71 67 67 67 67 68 68 64 59 55 49 44 40 35 30 24 18 16 15 15 15 16
49 52 55 56 58 61 63 66 69 72 74 77 79 79 78 76 77 80 81 79 75 70 66 65 65 65 66 67 63 57 54 50 45 41 36 31 25 19 15 13 13 13 15
51 54 56 57 58 61 63 65 68 71 73 76 78 79 78 77 76 78 80 78 74 69 65 64 64 64 64 65 63 57 54 50 46 42 38 34 28 22 17 13 11 11 13
53 55 57 58 59 60 62 64 67 70 72 74 77 79 78 77 76 77 78 78 74 68 64 63 62 62 62 63 63 58 53 49 46 43 39 35 31 25 20 15 11 9 10
53 56 58 59 60 60 61 62 65 69 71 73 76 78 78 76 75 75 77 77 74 69 63 61 60 60 60 61 61 58 51 47 44 41 39 37 33 28 22 17 13 8 7
54 57 59 60 60 60 59 61 64 67 70 72 74 76 77 76 74 74 75 76 74 69 63 60 58 58 58 58 59 57 51 46 42 40 38 37 34 30 25 20 15 10 5
56 57 59 60 59 59 58 59 62 65 69 70 72 74 75 75 74 73 74 75 73 69 64 59 57 57 57 56 56 56 52 45 41 38 37 35 34 32 27 23 17 12 7
56 57 58 59 59 58 57 58 61 64 67 69 70 72 74 74 73 72 72 73 73 70 64 59 57 56 55 55 55 54 52 46 40 37 35 34 33 32 29 25 21 15 9
57 57 57 57 57 57 56 56 59 62 66 68 69 70 72 73 72 71 70 71 72 69 64 59 56 55 54 53 53 52 50 47 40 36 33 32 32 31 30 27 24 18 12
58 56 56 56 55 56 55 55 57 61 64 67 68 68 70 71 71 69 69 69 70 69 64 58 55 53 53 52 51 51 49 47 42 35 31 30 29 29 29 28 26 22 16
58 57 56 55 54 55 55 55 56 60 63 66 66 66 67 69 69 68 67 67 68 67 64 58 54 51 51 50 50 49 48 46 44 37 31 29 28 27 28 27 27 24 20
60 59 58 56 55 55 55 55 56 59 61 64 65 65 65 67 67 66 65 64 66 66 64 59 53 50 49 49 48 47 46 45 43 40 34 29 27 26 26 26 26 25 21
62 61 60 59 57 56 56 56 57 59 61 63 64 63 62 64 65 64 63 62 63 65 64 60 53 49 47 47 47 46 45 43 42 40 38 32 27 25 24 24 24 24 22
63 62 62 61 59 57 57 57 57 59 60 62 62 61 60 61 62 62 61 60 61 63 64 60 54 49 46 46 46 45 43 42 41 40 39 35 28 24 22 21 21 21 20
Wind_Direction
359 356 353 351 348 344 340 335 330 327 325 325 326 327 327 327 327 327 327 328 328 328 327 326 325 324 324 323 322 321 319 316 311 307 302 296 288 275 261 250 241 235 232
0 358 355 353 351 349 346 342 338 334 331 329 329 330 330 330 330 330 330 331 331 331 330 329 329 328 327 327 326 326 324 321 318 315 312 308 298 282 264 249 238 231 228
358 356 355 353 352 351 350 348 345 341 337 334 333 334 334 333 332 332 332 333 334 334 333 332 332 332 331 331 331 330 328 325 323 321 321 321 316 298 269 249 235 228 225
358 356 355 353 352 352 351 351 349 346 342 339 337 337 336 335 334 334 334 336 336 336 335 335 335 335 334 334 335 334 331 328 326 325 326 328 328 321 289 252 236 226 222
359 357 356 354 353 352 352 351 351 349 346 342 340 339 338 337 336 336 337 338 339 338 337 337 338 338 338 338 338 337 334 330 327 326 328 332 336 336 326 268 238 227 220
359 358 357 356 355 354 353 352 351 351 349 346 343 342 340 339 338 338 340 341 341 340 340 340 340 340 341 341 341 339 336 331 327 325 327 331 338 344 344 317 245 228 220
357 357 356 356 355 354 353 353 352 351 350 348 345 344 342 341 340 340 342 343 343 343 342 343 343 343 343 344 344 342 339 334 329 325 324 326 331 337 343 340 274 229 221
353 353 354 354 354 353 353 353 352 351 350 349 347 345 344 342 342 342 344 345 346 345 345 345 345 345 346 347 346 345 342 338 332 326 321 319 320 324 329 332 302 233 220
348 350 350 351 352 352 352 352 352 351 351 350 349 347 345 344 343 344 346 347 347 347 347 348 348 348 349 349 349 348 346 342 337 330 321 315 310 308 310 311 296 242 221
343 346 347 348 349 350 351 351 351 351 350 350 349 348 346 345 344 345 347 349 349 349 349 350 350 350 351 352 352 351 350 347 342 336 327 316 306 299 295 290 278 248 225
339 342 344 345 347 348 349 349 350 350 350 350 350 349 347 346 345 346 349 350 351 351 351 351 352 352 354 355 355 354 353 351 348 343 336 325 311 297 287 280 270 253 233
335 338 340 342 344 345 347 348 349 349 350 350 350 349 348 346 346 347 350 352 352 352 353 353 354 354 356 357 357 357 357 356 354 351 346 338 325 306 290 278 268 256 240
331 334 336 339 341 343 344 346 347 348 349 349 350 350 348 347 347 348 351 353 353 353 354 354 355 356 357 359 359 360 0 360 359 358 355 348 339 323 303 285 270 258 243
328 330 333 335 338 340 341 343 345 347 348 349 350 350 349 347 347 348 351 354 355 354 355 356 357 358 359 1 1 2 3 4 4 3 1 357 351 341 324 301 279 261 245
324 327 329 332 335 337 339 341 343 346 347 348 349 349 349 348 348 349 352 354 356 356 355 356 358 359 0 1 2 4 6 6 6 6 6 4 1 355 344 326 297 271 248
320 323 326 329 332 334 336 338 341 344 346 347 348 349 349 348 348 349 352 355 357 357 356 357 358 360 1 2 3 5 6 7 8 8 8 8 7 3 357 345 326 293 258
317 320 323 326 328 331 334 336 339 342 344 346 347 348 349 348 348 349 351 355 357 358 357 357 359 0 2 2 4 6 6 7 8 9 10 10 10 8 4 359 349 327 278
314 317 320 322 325 328 332 334 337 340 343 345 346 347 348 348 348 349 351 354 357 358 358 358 359 0 2 3 5 6 6 6 8 9 11 11 11 11 10 6 1 349 315
311 314 317 319 323 326 329 332 335 338 341 343 345 346 347 347 347 349 351 354 357 359 359 359 360 1 2 4 5 6 7 6 8 10 12 13 13 13 14 12 9 4 348
308 311 314 317 320 324 327 330 333 336 339 342 344 345 346 347 347 348 350 353 356 359 359 359 0 2 3 3 5 6 7 7 7 8 10 12 14 15 16 16 14 11 4
306 309 312 315 319 322 325 328 331 334 337 340 342 344 345 346 346 347 349 352 356 359 360 360 1 2 3 3 4 6 8 8 8 8 9 11 13 15 16 17 18 16 14
305 308 311 314 317 320 323 325 328 331 335 338 340 342 344 345 345 346 348 351 355 358 360 360 1 2 3 3 4 6 8 9 10 9 10 11 13 14 16 17 19 21 21
304 307 309 312 315 317 320 322 325 328 332 335 338 340 342 344 344 345 347 350 354 357 359 0 1 2 3 4 4 5 7 9 11 12 12 13 14 15 16 18 20 23 25
301 304 306 308 311 314 316 319 321 325 329 332 335 338 340 342 343 344 346 349 352 356 359 0 1 2 4 5 5 6 7 10 12 13 14 14 14 15 16 18 20 23 27
297 299 302 304 307 310 312 314 317 321 325 329 332 335 338 341 341 342 344 347 350 354 358 360 1 2 3 4 6 6 8 10 12 14 16 16 15 15 17 19 21 23 28
292 295 297 300 302 305 307 309 312 316 321 325 328 331 335 338 340 341 342 345 348 352 357 360 0 1 3 5 6 7 8 10 12 14 16 17 17 17 19 21 24 27 32
Height
5828 5823 5817 5811 5805 5798 5790 5781 5773 5764 5754 5745 5735 5723 5710 5697 5682 5666 5648 5629 5607 5583 5560 5538 5519 5501 5483 5466 5448 5430 5414 5397 5382 5372 5364 5358 5348 5343 5344 5349 5361 5374 5386
5825 5820 5814 5807 5800 5792 5784 5775 5765 5755 5745 5735 5724 5712 5699 5684 5669 5652 5633 5611 5588 5565 5542 5522 5504 5486 5468 5450 5431 5412 5396 5381 5366 5353 5343 5335 5329 5320 5317 5322 5332 5344 5357
5821 5816 5809 5802 5794 5786 5778 5768 5757 5747 5736 5724 5713 5700 5686 5671 5655 5637 5617 5595 5571 5548 5527 5508 5490 5472 5453 5435 5416 5397 5380 5367 5355 5340 5327 5315 5306 5302 5298 5298 5307 5320 5335
5817 5811 5804 5797 5789 5780 5770 5760 5749 5738 5726 5714 5702 5688 5674 5659 5643 5624 5603 5581 5557 5534 5514 5496 5477 5459 5441 5422 5403 5384 5367 5354 5343 5333 5322 5309 5296 5288 5286 5285 5290 5300 5315
5812 5806 5799 5791 5783 5773 5763 5753 5741 5729 5717 5704 5691 5677 5663 5647 5630 5611 5591 5568 5545 5523 5503 5485 5467 5448 5430 5411 5392 5374 5358 5344 5333 5324 5315 5306 5296 5285 5279 5278 5280 5289 5301
5809 5801 5794 5785 5776 5767 5756 5745 5733 5721 5708 5695 5681 5667 5652 5636 5619 5600 5579 5557 5535 5513 5494 5476 5457 5439 5420 5402 5383 5365 5350 5337 5326 5317 5309 5302 5294 5286 5279 5275 5275 5281 5291
5804 5796 5788 5780 5770 5760 5749 5738 5725 5713 5700 5686 5671 5657 5642 5626 5608 5589 5569 5548 5526 5506 5486 5468 5450 5431 5413 5394 5375 5358 5343 5330 5320 5312 5305 5299 5292 5286 5280 5276 5274 5277 5284
5799 5791 5783 5774 5764 5754 5743 5731 5718 5705 5691 5677 5662 5648 5632 5616 5599 5580 5560 5538 5517 5498 5479 5461 5443 5425 5407 5388 5369 5352 5337 5325 5314 5307 5300 5295 5290 5285 5281 5277 5274 5275 5279
5793 5786 5777 5768 5758 5748 5736 5724 5711 5698 5684 5669 5654 5639 5623 5607 5590 5571 5551 5530 5510 5491 5473 5455 5438 5420 5402 5383 5364 5347 5332 5320 5310 5301 5295 5290 5286 5282 5279 5276 5273 5273 5275
5788 5780 5771 5762 5752 5742 5730 5718 5705 5691 5677 5662 5647 5631 5615 5599 5582 5564 5544 5524 5504 5485 5468 5451 5433 5416 5397 5379 5361 5344 5329 5316 5306 5297 5290 5284 5280 5278 5275 5273 5271 5270 5271
5782 5774 5765 5756 5746 5736 5724 5712 5698 5685 5670 5656 5640 5624 5608 5592 5575 5557 5538 5518 5498 5480 5463 5446 5430 5413 5395 5376 5358 5342 5327 5314 5303 5294 5286 5280 5275 5272 5271 5270 5269 5268 5269
5775 5767 5759 5750 5740 5729 5718 5706 5693 5679 5664 5650 5634 5618 5602 5586 5569 5552 5533 5513 5494 5476 5459 5443 5427 5410 5393 5375 5358 5342 5327 5314 5303 5293 5284 5276 5271 5268 5266 5266 5265 5265 5266
5769 5761 5753 5744 5734 5724 5712 5700 5687 5673 5659 5644 5629 5613 5597 5581 5564 5547 5528 5509 5490 5473 5456 5441 5425 5409 5392 5375 5358 5343 5329 5315 5303 5293 5283 5276 5270 5265 5263 5262 5262 5262 5263
5763 5755 5746 5738 5728 5718 5707 5695 5682 5668 5654 5639 5624 5608 5592 5576 5559 5542 5524 5506 5487 5470 5454 5439 5423 5407 5391 5375 5359 5345 5331 5317 5305 5295 5285 5277 5270 5265 5262 5260 5259 5260 5261
5755 5748 5739 5731 5722 5712 5701 5690 5677 5664 5649 5635 5619 5604 5588 5572 5555 5538 5521 5503 5485 5468 5452 5437 5422 5406 5391 5376 5361 5346 5332 5320 5309 5298 5288 5279 5272 5266 5262 5259 5258 5258 5259
5748 5741 5732 5724 5715 5706 5695 5684 5672 5659 5645 5630 5615 5600 5584 5568 5552 5535 5518 5501 5483 5467 5451 5436 5421 5406 5391 5377 5361 5346 5334 5323 5312 5301 5292 5283 5275 5269 5264 5260 5257 5257 5257
5741 5733 5725 5717 5708 5699 5689 5678 5666 5654 5640 5626 5611 5596 5580 5565 5549 5533 5517 5500 5483 5466 5451 5436 5421 5407 5393 5379 5364 5350 5337 5327 5316 5306 5296 5288 5280 5273 5267 5262 5259 5257 5256
5733 5726 5718 5710 5701 5692 5683 5672 5661 5649 5635 5622 5607 5592 5577 5562 5546 5531 5515 5498 5482 5466 5451 5437 5422 5408 5394 5381 5367 5354 5341 5331 5321 5311 5302 5293 5285 5277 5271 5266 5261 5258 5257
5725 5718 5710 5702 5694 5685 5676 5666 5655 5643 5631 5617 5603 5589 5574 5559 5544 5529 5513 5497 5481 5466 5451 5437 5423 5409 5395 5382 5370 5357 5345 5334 5324 5315 5306 5298 5290 5282 5275 5269 5265 5261 5259
5716 5709 5702 5694 5686 5677 5668 5659 5649 5638 5626 5613 5599 5586 5571 5556 5542 5527 5512 5496 5480 5465 5450 5437 5423 5409 5397 5384 5373 5361 5349 5338 5327 5318 5310 5302 5294 5287 5280 5274 5268 5264 5261
5706 5699 5692 5685 5677 5669 5660 5652 5642 5632 5621 5608 5595 5582 5568 5554 5539 5525 5511 5496 5480 5465 5450 5437 5423 5410 5398 5387 5375 5364 5353 5342 5331 5322 5314 5306 5298 5291 5285 5278 5272 5268 5264
5694 5688 5682 5675 5668 5660 5652 5645 5636 5626 5615 5604 5592 5579 5565 5552 5537 5523 5509 5495 5480 5465 5451 5437 5424 5412 5400 5389 5378 5367 5356 5345 5335 5325 5318 5310 5303 5296 5289 5283 5277 5272 5267
5682 5677 5671 5665 5658 5651 5644 5637 5628 5619 5609 5599 5587 5575 5562 5549 5535 5521 5508 5494 5480 5466 5452 5439 5427 5415 5403 5391 5381 5370 5360 5349 5339 5329 5321 5314 5307 5301 5294 5288 5282 5276 5272
5669 5664 5659 5654 5648 5642 5635 5628 5621 5612 5603 5593 5582 5571 5559 5547 5533 5520 5507 5494 5481 5467 5453 5440 5428 5417 5406 5395 5384 5374 5363 5353 5343 5334 5325 5317 5311 5305 5299 5293 5288 5282 5277
5656 5651 5647 5642 5638 5632 5626 5619 5612 5605 5597 5588 5578 5567 5555 5544 5532 5519 5506 5494 5481 5468 5455 5442 5430 5419 5408 5398 5387 5377 5367 5357 5348 5338 5329 5322 5316 5310 5305 5299 5294 5288 5284
5642 5638 5634 5630 5626 5622 5616 5610 5604 5597 5589 5581 5572 5562 5551 5540 5529 5517 5505 5493 5481 5468 5455 5442 5430 5419 5409 5399 5389 5379 5369 5360 5352 5343 5335 5327 5320 5315 5309 5305 5300 5295 5291